Location: *
(18.5200°S, 46.4500°E)
Time: 05:13:17
(UTC+00:00)

USA 229 DEB - Pass Details

Date: 19 July 2019
Orbit: 1003 x 1210 km, 63.4° (Epoch: 18 August)

Event Time Altitude Azimuth Distance (km) Brightness Sun altitude
Rises 15:00:03 0° 190° (S) 3,832 6.5 -6.4°
Reaches altitude 10° 15:03:11 10° 178° (S) 2,846 5.7 -7.1°
Maximum altitude 15:08:44 27° 121° (ESE) 1,829 4.4 -8.3°
Drops below altitude 10° 15:14:07 10° 64° (ENE) 2,772 5.5 -9.5°
Sets 15:17:06 0° 53° (NE) 3,714 6.2 -10.2°
